Content
SEND FEEDBACK

Canada Flag

DRUMHELLER, ALBERTA


Home > North America > Canada > Alberta
Elevation: 2254 feet     Latitude: 51 28N     Longitude: 112 43W

WEATHER
 
SELECT A DAY
Number of Records: 154,211;   Date Range: 1/1/95 - 3/22/16
 
SHARE

PRINT THIS DATA

[ ← Previous Day ]
WEATHER ALMANAC - OCTOBER 17, 2013
[ Next Day → ]
[ °C ]   °F
Weather ElementAverageHighLow
Temperature38 °F48.6 °F (2:00 pm)29.1 °F (1:00 am)
Dewpoint28.2 °F34.2 °F (11:00 am)24.6 °F (2:00 pm)
Humidity69.9 %93 % (8:00 am)35 % (12:00 pm)
Barometer30.20 in30.23 in (8:00 pm)30.17 in (5:00 am)
Wind Speed7.1 mph19.6 mph (3:00 pm)
Weather ElementAverage
Wind DirectionWSW (258.5 °)

Weather ElementTotal
Precipitation---
Heating Degree Days26.2 (Base 65)
Averaged from 27 records on October 17, 2013
WEATHER CONDITIONS BREAKOUT
WIND DIRECTION BREAKOUT
WEATHER BY HOUR - OCTOBER 17, 2013
[ °C ]   °F
Local TimeTemperatureDewpointHumidityBarometerVisibilityWind DirectionWind SpeedGust SpeedPrecipitationEventsConditions
12:00 AM29.3 °F26.4 °F89 %30.20 inSouth (180°)3.5 mph
1:00 AM29.1 °F26.1 °F88 %30.19 inCalm
2:00 AM29.3 °F27.3 °F92 %30.19 inSE (130°)1.2 mph
3:00 AM30.2 °F27.5 °F90 %30.19 inCalm
4:00 AM31.1 °F28.2 °F89 %30.19 inSSE (150°)1.2 mph
5:00 AM31.6 °F28.2 °F87 %30.17 inSSE (150°)3.5 mph
6:00 AM31.6 °F28.4 °F88 %30.19 inSW (220°)3.5 mph
6:00 AM32.0 °F28.0 °F81 %30.19 inSW (220°)3.5 mph
7:00 AM32.0 °F29.3 °F90 %30.19 inSE (130°)2.3 mph
8:00 AM31.8 °F30.0 °F93 %30.20 inNW (320°)1.2 mph
9:00 AM33.3 °F30.7 °F90 %30.21 inWSW (250°)1.2 mph
10:00 AM35.1 °F31.6 °F87 %30.22 inSouth (170°)1.2 mph
11:00 AM40.8 °F34.2 °F77 %30.21 inNNW (330°)3.5 mph
12:00 PM46.6 °F28.0 °F49 %30.20 inNorth (350°)18.4 mph
12:00 PM47.0 °F28.0 °F35 %30.20 inNorth (350°)18.4 mph
1:00 PM47.8 °F25.3 °F41 %30.21 inNorth (350°)17.3 mph
2:00 PM48.6 °F24.6 °F39 %30.20 inNorth (350°)17.3 mph
3:00 PM47.8 °F27.9 °F46 %30.20 inNorth (360°)19.6 mph
4:00 PM48.2 °F28.8 °F47 %30.20 inNorth (360°)18.4 mph
5:00 PM48.6 °F28.9 °F47 %30.21 inNorth (360°)19.6 mph
6:00 PM47.1 °F29.1 °F50 %30.22 inNorth (350°)10.4 mph
6:00 PM47.0 °F29.0 °F37 %30.22 inNorth (350°)10.4 mph
7:00 PM42.6 °F27.9 °F56 %30.22 inNNW (330°)4.6 mph
8:00 PM39.0 °F27.3 °F63 %30.23 inNNW (330°)2.3 mph
9:00 PM35.4 °F27.3 °F72 %30.23 inNNW (330°)3.5 mph
10:00 PM34.0 °F27.1 °F76 %30.23 inNNW (330°)3.5 mph
11:00 PM30.2 °F27.1 °F88 %30.22 inSW (230°)1.2 mph
Hourly data recorded from CWDZ, located miles away from Drumheller, Alberta




STORIES FROM OUR PARTNERS